Location: Newark
(35.8833°N, 14.5000°E)
Time: 23:36:39
(UTC+00:00)

NOAA 15 - Pass Details

Date: 24 May 2019
Orbit: 799 x 812 km, 98.7° (Epoch: 15 June)

Event Time Altitude Azimuth Distance (km) Brightness Sun altitude
Rises 18:56:21 0° 217° (SW) 3,298 7.8 -9.4°
Reaches altitude 10° 19:00:31 10° 250° (WSW) 2,378 7.6 -10.1°
Maximum altitude 19:02:12 11° 269° (W) 2,278 7.8 -10.4°
Drops below altitude 10° 19:03:54 10° 288° (WNW) 2,386 8.4 -10.6°
Sets 19:08:08 0° 321° (NW) 3,327 9.5 -11.3°
